CW9346 Weather Reports


time (UTC)temp
F
wind
direction
speed
knots
gust
knots
rain 1hr
in
rain 24hr
in
rain mn
in
humidity
%
barometer
mb
20260507150023 51 248 0.0 0.0 0.00 0.18 0.05 89 1009.4
20260507144516 51 248 0.0 0.0 0.00 0.18 0.05 90 1009.7
20260507143011 51 248 0.0 0.0 0.00 0.18 0.05 89 1009.8
20260507141615 51 243 0.0 0.0 0.00 0.18 0.05 89 1009.9
20260507140045 51 242 0.0 0.0 0.00 0.24 0.05 89 1010.0
20260507134547 51 242 0.0 0.0 0.00 0.24 0.05 89 1010.1
20260507133039 51 242 0.0 0.9 0.00 0.24 0.05 90 1010.1
20260507131542 51 242 0.0 0.0 0.00 0.24 0.05 90 1010.0
20260507130036 52 242 0.0 0.0 0.00 0.25 0.05 90 1009.7
20260507124532 52 242 0.0 0.0 0.01 0.25 0.05 90 1010.1
20260507123022 52 242 0.0 0.0 0.01 0.25 0.05 90 1010.2
20260507121513 53 242 0.0 0.0 0.01 0.25 0.05 90 1009.8
20260507120009 53 242 0.0 0.0 0.01 0.25 0.05 90 1009.9
20260507114558 54 244 0.0 0.0 0.00 0.24 0.04 90 1009.5
20260507113050 54 244 0.0 0.0 0.00 0.24 0.04 90 1009.4
20260507111544 54 244 0.0 0.0 0.00 0.24 0.04 90 1009.4
20260507110039 54 244 0.0 0.0 0.00 0.24 0.04 90 1009.3
20260507104530 54 244 0.0 0.0 0.00 0.24 0.04 90 1009.2
20260507103012 54 244 0.0 0.0 0.00 0.24 0.04 90 1009.1
20260507101513 54 244 0.0 0.0 0.00 0.24 0.04 90 1009.0
20260507100044 54 244 0.0 0.0 0.01 0.24 0.04 90 1008.8
20260507094542 54 244 0.0 0.0 0.01 0.24 0.04 90 1008.8
20260507093035 54 244 0.0 0.0 0.01 0.24 0.04 89 1008.8
20260507091529 54 244 0.0 0.0 0.01 0.24 0.04 89 1008.4
20260507090013 54 244 0.0 0.0 0.00 0.23 0.03 89 1008.7
20260507084556 55 244 0.0 0.0 0.00 0.23 0.03 89 1008.5
20260507083044 55 244 0.0 0.9 0.01 0.23 0.03 89 1008.7
20260507081534 55 244 0.0 0.0 0.01 0.23 0.03 89 1008.3
20260507080025 55 244 0.0 0.0 0.01 0.23 0.03 90 1007.9
20260507074520 55 244 0.0 0.0 0.01 0.23 0.03 89 1007.8
20260507073010 55 244 0.0 0.0 0.00 0.22 0.02 89 1007.6
20260507071510 56 244 0.0 0.0 0.01 0.22 0.02 89 1007.7
20260507070059 56 244 0.0 0.0 0.01 0.22 0.02 89 1007.7
20260507064551 56 244 0.0 0.0 0.01 0.22 0.02 88 1007.7
20260507063047 56 244 0.0 0.0 0.01 0.22 0.02 88 1007.8
20260507061542 56 244 0.0 0.0 0.01 0.21 0.01 87 1007.5
20260507060047 57 244 0.0 0.0 0.01 0.21 0.01 86 1007.6
20260507054512 57 244 0.0 0.0 0.01 0.21 0.01 85 1007.5
20260507053008 58 244 0.0 0.0 0.01 0.21 0.01 85 1007.8
20260507051508 58 244 0.0 0.0 0.00 0.20 0.00 83 1007.3
20260507050047 59 244 0.0 0.0 0.00 0.20 0.00 82 1007.9
20260507044556 60 244 0.0 0.0 0.00 0.20 0.20 81 1007.9
20260507043041 61 223 0.0 0.9 0.00 0.20 0.20 81 1007.8
20260507041535 62 271 0.0 0.0 0.00 0.20 0.20 80 1007.9
20260507040031 62 271 0.0 0.0 0.00 0.20 0.20 79 1007.5
20260507034516 63 272 0.0 0.0 0.00 0.20 0.20 78 1007.2
20260507033045 63 271 0.0 1.7 0.00 0.20 0.20 77 1007.2
20260507031541 63 266 0.0 6.1 0.00 0.20 0.20 77 1007.2
20260507030032 63 265 0.0 0.0 0.00 0.20 0.20 77 1006.7
20260507024503 64 265 0.0 1.7 0.00 0.20 0.20 77 1007.0
20260507023059 64 270 0.0 0.0 0.00 0.20 0.20 79 1006.7
20260507023002 64 272 0.0 0.9 0.00 0.20 0.20 80 1006.7
20260507021541 65 271 0.0 0.0 0.00 0.20 0.20 82 1006.6
20260507020035 66 275 0.0 1.7 0.00 0.20 0.20 83 1006.4
20260507014559 66 236 0.0 0.0 0.00 0.20 0.20 84 1006.2
20260507013057 66 236 0.0 1.7 0.00 0.20 0.20 85 1006.6
20260507011545 67 88 0.0 0.0 0.00 0.20 0.20 84 1006.4
20260507010020 67 88 0.0 0.0 0.00 0.20 0.20 83 1006.2
20260507004506 67 88 0.0 0.0 0.00 0.20 0.20 83 1006.3
20260507003042 67 88 0.0 0.0 0.00 0.20 0.20 81 1006.1
20260507001542 68 88 0.0 0.0 0.00 0.20 0.20 80 1006.1
20260507000034 68 88 0.0 0.0 0.00 0.20 0.20 81 1006.1
20260506234526 68 88 0.0 0.0 0.00 0.20 0.20 80 1005.9
20260506233023 69 88 0.0 0.0 0.00 0.20 0.20 79 1005.6
20260506231511 69 88 0.0 0.9 0.00 0.20 0.20 79 1005.3
20260506230040 69 88 0.0 0.0 0.00 0.20 0.20 79 1005.3
20260506224542 70 89 0.0 0.0 0.00 0.20 0.20 79 1005.1
20260506223034 70 88 0.0 1.7 0.00 0.20 0.20 78 1005.2
20260506221526 70 95 0.0 0.0 0.00 0.20 0.20 78 1005.0
20260506220105 70 148 0.0 1.7 0.00 0.20 0.20 78 1005.0
20260506220009 70 148 0.0 1.7 0.00 0.20 0.20 78 1005.0
20260506214613 70 275 0.0 4.3 0.00 0.20 0.20 78 1005.0
20260506214504 70 275 0.0 4.3 0.00 0.20 0.20 78 1005.0
20260506213056 70 113 0.0 0.0 0.00 0.20 0.20 79 1005.0
20260506211546 70 108 0.0 0.9 0.00 0.20 0.20 80 1004.9
20260506210042 69 111 0.0 0.0 0.00 0.20 0.20 79 1004.8
20260506204518 69 108 0.0 0.9 0.00 0.20 0.20 79 1004.6
20260506203016 69 34 0.0 0.9 0.00 0.20 0.20 80 1004.4
20260506201600 69 121 0.0 0.9 0.00 0.20 0.20 80 1004.6
20260506201502 69 121 0.0 0.9 0.00 0.20 0.20 81 1004.6
20260506200058 68 135 0.0 6.1 0.00 0.20 0.20 81 1004.8
20260506194553 68 201 0.0 1.7 0.00 0.20 0.20 81 1004.8
20260506193029 68 106 0.0 6.1 0.00 0.20 0.20 80 1004.8
20260506191528 68 124 0.0 3.5 0.00 0.20 0.20 81 1004.8
20260506190005 67 311 0.0 0.9 0.00 0.20 0.20 84 1004.8
20260506184545 66 299 0.0 1.7 0.00 0.20 0.20 85 1005.3
20260506183043 66 84 0.0 1.7 0.00 0.20 0.20 85 1005.3
20260506181543 65 110 0.0 3.5 0.01 0.20 0.20 85 1005.5
20260506180041 65 286 0.0 4.3 0.01 0.20 0.20 87 1005.6
20260506174536 65 300 0.0 7.8 0.02 0.20 0.20 88 1005.6
20260506173030 64 342 0.0 1.7 0.02 0.20 0.20 91 1005.6
20260506171523 64 83 0.0 3.5 0.02 0.19 0.19 91 1005.8
20260506170016 63 44 0.0 4.3 0.03 0.19 0.19 92 1005.9
20260506164505 63 305 0.0 3.5 0.03 0.18 0.18 93 1005.8
20260506163044 63 83 0.0 5.2 0.04 0.18 0.18 94 1005.8
20260506161535 62 336 0.0 3.5 0.04 0.17 0.17 94 1005.8
20260506160003 62 110 0.0 1.7 0.04 0.16 0.16 94 1005.8